QPF
0.03 0.07 0.14 0.16 0.17 0.15 0.12 0.13 0.15 0.17 0.16 0.15 0.14 0.18 0.20 0.17 0.18 0.18 0.19 0.19 0.21 0.19 0.14 0.11 0.11 0.11 0.10 0.09 0.07 0.07 0.06 0.06 0.06 0.06 0.05 0.06 0.04 0.04 0.04 0.05 0.02 0.01 0.04
0.02 0.04 0.10 0.10 0.10 0.10 0.09 0.10 0.14 0.12 0.12 0.11 0.11 0.15 0.14 0.13 0.14 0.14 0.14 0.18 0.20 0.18 0.15 0.13 0.10 0.09 0.08 0.06 0.05 0.05 0.05 0.04 0.06 0.07 0.08 0.08 0.07 0.06 0.05 0.04 0.04 0.04 0.07
0.02 0.03 0.06 0.06 0.05 0.06 0.07 0.08 0.12 0.10 0.09 0.08 0.08 0.12 0.14 0.10 0.09 0.10 0.11 0.15 0.19 0.17 0.16 0.13 0.10 0.08 0.07 0.05 0.04 0.04 0.05 0.04 0.05 0.07 0.07 0.04 0.05 0.07 0.07 0.04 0.05 0.06 0.07
0.02 0.03 0.05 0.06 0.06 0.07 0.08 0.08 0.09 0.07 0.06 0.06 0.05 0.07 0.12 0.09 0.07 0.09 0.10 0.16 0.18 0.15 0.13 0.10 0.10 0.08 0.06 0.04 0.04 0.04 0.05 0.06 0.05 0.05 0.02 0.01 0.01 0.04 0.06 0.05 0.06 0.06 0.05
0.02 0.03 0.05 0.08 0.12 0.13 0.09 0.07 0.07 0.05 0.05 0.05 0.04 0.05 0.09 0.09 0.10 0.09 0.10 0.16 0.21 0.17 0.13 0.09 0.09 0.08 0.07 0.07 0.06 0.05 0.06 0.07 0.07 0.04 0.01 0.00 0.01 0.04 0.06 0.05 0.07 0.07 0.06
0.02 0.02 0.04 0.06 0.09 0.09 0.06 0.06 0.05 0.04 0.04 0.05 0.04 0.04 0.06 0.08 0.11 0.10 0.11 0.18 0.24 0.17 0.13 0.10 0.10 0.08 0.08 0.08 0.08 0.08 0.07 0.08 0.06 0.02 0.01 0.01 0.01 0.03 0.05 0.06 0.06 0.05 0.06
0.02 0.02 0.03 0.04 0.04 0.04 0.05 0.05 0.05 0.04 0.04 0.04 0.04 0.04 0.04 0.06 0.09 0.09 0.12 0.20 0.23 0.14 0.10 0.09 0.07 0.06 0.06 0.06 0.07 0.06 0.06 0.07 0.04 0.02 0.01 0.01 0.01 0.04 0.05 0.05 0.05 0.05 0.04
0.02 0.03 0.03 0.05 0.05 0.04 0.04 0.05 0.05 0.05 0.05 0.05 0.05 0.06 0.06 0.06 0.08 0.10 0.16 0.22 0.22 0.17 0.11 0.07 0.05 0.04 0.05 0.05 0.06 0.05 0.06 0.05 0.04 0.02 0.01 0.01 0.01 0.03 0.03 0.03 0.04 0.04 0.03
0.01 0.02 0.03 0.03 0.04 0.04 0.03 0.03 0.04 0.06 0.07 0.06 0.06 0.07 0.08 0.09 0.11 0.17 0.20 0.19 0.19 0.18 0.14 0.07 0.04 0.04 0.05 0.06 0.06 0.06 0.06 0.05 0.03 0.01 0.00 0.01 0.02 0.03 0.03 0.02 0.03 0.03 0.02
0.01 0.02 0.04 0.03 0.02 0.03 0.02 0.03 0.04 0.06 0.06 0.07 0.07 0.09 0.13 0.17 0.19 0.24 0.24 0.20 0.17 0.15 0.11 0.06 0.04 0.04 0.05 0.06 0.07 0.07 0.07 0.05 0.03 0.01 0.00 0.01 0.02 0.04 0.03 0.03 0.03 0.02 0.02
0.01 0.02 0.04 0.03 0.02 0.02 0.02 0.03 0.05 0.06 0.07 0.06 0.07 0.10 0.15 0.22 0.26 0.21 0.17 0.18 0.21 0.15 0.10 0.07 0.05 0.04 0.04 0.04 0.07 0.06 0.05 0.02 0.01 0.02 0.01 0.01 0.02 0.05 0.06 0.04 0.03 0.03 0.03
0.00 0.01 0.03 0.02 0.03 0.03 0.03 0.03 0.04 0.05 0.05 0.04 0.05 0.09 0.14 0.18 0.17 0.12 0.13 0.19 0.23 0.15 0.10 0.08 0.06 0.04 0.03 0.03 0.05 0.06 0.03 0.02 0.02 0.03 0.02 0.01 0.02 0.04 0.06 0.04 0.03 0.03 0.03
0.00 0.00 0.01 0.02 0.05 0.05 0.05 0.05 0.04 0.05 0.05 0.04 0.05 0.05 0.06 0.08 0.09 0.08 0.09 0.13 0.13 0.09 0.07 0.06 0.05 0.02 0.01 0.02 0.03 0.04 0.03 0.02 0.01 0.01 0.02 0.02 0.02 0.04 0.06 0.05 0.04 0.04 0.04
0.00 0.00 0.00 0.01 0.04 0.06 0.06 0.06 0.05 0.06 0.07 0.05 0.04 0.03 0.03 0.04 0.03 0.03 0.03 0.03 0.05 0.05 0.05 0.03 0.02 0.02 0.02 0.02 0.02 0.03 0.03 0.02 0.01 0.01 0.02 0.03 0.04 0.06 0.07 0.06 0.05 0.06 0.06
0.00 0.00 0.00 0.00 0.02 0.08 0.09 0.07 0.06 0.09 0.08 0.04 0.03 0.04 0.03 0.03 0.02 0.02 0.02 0.01 0.01 0.03 0.03 0.02 0.02 0.03 0.02 0.02 0.04 0.06 0.04 0.02 0.01 0.01 0.02 0.03 0.06 0.07 0.07 0.07 0.05 0.05 0.05
0.00 0.00 0.00 0.00 0.02 0.08 0.10 0.07 0.07 0.10 0.09 0.05 0.04 0.04 0.03 0.03 0.03 0.03 0.02 0.01 0.00 0.01 0.01 0.02 0.01 0.02 0.02 0.02 0.03 0.04 0.04 0.02 0.02 0.02 0.02 0.04 0.06 0.05 0.05 0.05 0.05 0.05 0.05
0.00 0.00 0.00 0.00 0.01 0.04 0.06 0.06 0.08 0.11 0.10 0.06 0.05 0.04 0.04 0.04 0.03 0.04 0.03 0.02 0.02 0.01 0.02 0.03 0.03 0.03 0.02 0.02 0.03 0.04 0.03 0.02 0.03 0.02 0.01 0.02 0.02 0.04 0.06 0.05 0.05 0.06 0.07
0.00 0.00 0.00 0.00 0.01 0.01 0.03 0.05 0.06 0.08 0.09 0.06 0.05 0.05 0.04 0.04 0.03 0.03 0.03 0.03 0.04 0.03 0.02 0.03 0.05 0.05 0.03 0.02 0.03 0.03 0.03 0.03 0.03 0.01 0.01 0.01 0.01 0.01 0.03 0.06 0.05 0.05 0.07
0.00 0.00 0.00 0.01 0.01 0.01 0.01 0.04 0.06 0.06 0.07 0.06 0.04 0.04 0.05 0.05 0.03 0.03 0.03 0.05 0.04 0.04 0.04 0.05 0.07 0.05 0.03 0.03 0.03 0.04 0.04 0.04 0.04 0.02 0.02 0.01 0.01 0.02 0.02 0.05 0.08 0.08 0.07
0.00 0.00 0.00 0.02 0.02 0.02 0.02 0.04 0.06 0.04 0.05 0.05 0.05 0.06 0.05 0.06 0.04 0.03 0.03 0.05 0.05 0.04 0.03 0.06 0.08 0.06 0.05 0.05 0.03 0.03 0.03 0.02 0.03 0.02 0.02 0.02 0.04 0.05 0.04 0.04 0.07 0.07 0.08
0.00 0.01 0.03 0.03 0.02 0.02 0.02 0.02 0.04 0.03 0.02 0.03 0.04 0.04 0.04 0.06 0.06 0.05 0.06 0.06 0.06 0.04 0.04 0.05 0.05 0.05 0.06 0.05 0.03 0.04 0.03 0.02 0.03 0.03 0.02 0.04 0.05 0.06 0.05 0.04 0.04 0.05 0.06
0.00 0.00 0.00 0.00 0.01 0.01 0.01 0.02 0.02 0.02 0.01 0.02 0.03 0.03 0.04 0.06 0.08 0.07 0.08 0.08 0.06 0.05 0.05 0.04 0.04 0.05 0.05 0.05 0.04 0.04 0.02 0.02 0.02 0.02 0.03 0.03 0.04 0.04 0.04 0.04 0.04 0.04 0.05
0.00 0.00 0.00 0.00 0.01 0.01 0.01 0.02 0.02 0.01 0.01 0.02 0.01 0.02 0.05 0.05 0.08 0.09 0.09 0.10 0.08 0.06 0.05 0.03 0.04 0.04 0.05 0.05 0.03 0.02 0.01 0.02 0.03 0.02 0.01 0.02 0.03 0.02 0.02 0.03 0.04 0.04 0.05
0.00 0.00 0.00 0.00 0.01 0.01 0.01 0.01 0.01 0.01 0.01 0.01 0.00 0.01 0.03 0.04 0.06 0.07 0.07 0.08 0.09 0.07 0.05 0.04 0.04 0.03 0.04 0.04 0.03 0.02 0.03 0.02 0.02 0.02 0.01 0.01 0.01 0.01 0.02 0.02 0.03 0.06 0.08
0.00 0.00 0.01 0.01 0.01 0.01 0.01 0.01 0.01 0.01 0.01 0.01 0.01 0.02 0.02 0.03 0.05 0.06 0.07 0.08 0.10 0.09 0.07 0.04 0.03 0.02 0.03 0.04 0.04 0.03 0.04 0.04 0.03 0.03 0.02 0.01 0.01 0.01 0.02 0.02 0.03 0.05 0.07
0.00 0.00 0.01 0.01 0.01 0.01 0.01 0.01 0.01 0.01 0.01 0.01 0.01 0.01 0.01 0.02 0.02 0.04 0.06 0.08 0.08 0.09 0.07 0.05 0.04 0.02 0.02 0.03 0.04 0.04 0.04 0.05 0.04 0.04 0.02 0.01 0.02 0.03 0.02 0.02 0.02 0.03 0.06
MSLP
1009.62 1009.21 1009.02 1009.05 1009.25 1009.53 1009.81 1010.04 1010.20 1010.29 1010.35 1010.42 1010.55 1010.75 1011.02 1011.33 1011.67 1011.99 1012.27 1012.51 1012.72 1012.92 1013.13 1013.36 1013.61 1013.89 1014.17 1014.45 1014.71 1014.96 1015.19 1015.41 1015.63 1015.85 1016.07 1016.29 1016.51 1016.73 1016.93 1017.13 1017.32 1017.50 1017.68
1009.46 1009.15 1009.04 1009.15 1009.41 1009.75 1010.08 1010.36 1010.56 1010.68 1010.77 1010.87 1011.02 1011.24 1011.52 1011.85 1012.18 1012.50 1012.77 1012.99 1013.17 1013.35 1013.53 1013.73 1013.97 1014.22 1014.49 1014.75 1014.99 1015.21 1015.42 1015.62 1015.83 1016.04 1016.27 1016.50 1016.74 1016.97 1017.18 1017.37 1017.55 1017.73 1017.89
1009.34 1009.12 1009.09 1009.25 1009.56 1009.93 1010.29 1010.60 1010.83 1010.99 1011.12 1011.25 1011.43 1011.67 1011.97 1012.29 1012.62 1012.92 1013.17 1013.36 1013.52 1013.68 1013.84 1014.03 1014.25 1014.50 1014.76 1015.01 1015.23 1015.44 1015.63 1015.82 1016.01 1016.23 1016.46 1016.70 1016.95 1017.19 1017.40 1017.60 1017.77 1017.94 1018.10
1009.29 1009.16 1009.19 1009.39 1009.71 1010.09 1010.47 1010.80 1011.05 1011.24 1011.40 1011.57 1011.78 1012.04 1012.34 1012.66 1012.97 1013.23 1013.45 1013.61 1013.75 1013.89 1014.04 1014.23 1014.46 1014.72 1014.97 1015.22 1015.45 1015.65 1015.83 1016.01 1016.21 1016.42 1016.66 1016.91 1017.17 1017.41 1017.62 1017.81 1017.98 1018.14 1018.30
1009.33 1009.27 1009.35 1009.57 1009.89 1010.26 1010.63 1010.95 1011.22 1011.43 1011.62 1011.82 1012.05 1012.33 1012.62 1012.93 1013.21 1013.44 1013.62 1013.76 1013.87 1014.00 1014.16 1014.36 1014.60 1014.87 1015.15 1015.40 1015.64 1015.84 1016.03 1016.21 1016.41 1016.64 1016.89 1017.14 1017.40 1017.63 1017.84 1018.02 1018.18 1018.34 1018.50
1009.46 1009.45 1009.56 1009.78 1010.08 1010.43 1010.77 1011.08 1011.35 1011.57 1011.78 1012.01 1012.26 1012.54 1012.84 1013.12 1013.37 1013.57 1013.72 1013.83 1013.93 1014.05 1014.22 1014.44 1014.70 1014.99 1015.28 1015.56 1015.80 1016.02 1016.22 1016.41 1016.63 1016.87 1017.13 1017.39 1017.65 1017.87 1018.07 1018.23 1018.37 1018.52 1018.68
1009.68 1009.70 1009.81 1010.02 1010.29 1010.60 1010.91 1011.19 1011.44 1011.67 1011.89 1012.13 1012.40 1012.69 1012.98 1013.25 1013.48 1013.65 1013.77 1013.87 1013.96 1014.09 1014.27 1014.50 1014.78 1015.09 1015.40 1015.69 1015.94 1016.17 1016.38 1016.60 1016.83 1017.09 1017.36 1017.64 1017.89 1018.11 1018.29 1018.43 1018.56 1018.68 1018.83
1009.95 1009.99 1010.10 1010.29 1010.52 1010.78 1011.05 1011.29 1011.51 1011.73 1011.96 1012.21 1012.49 1012.79 1013.08 1013.34 1013.56 1013.72 1013.83 1013.92 1014.01 1014.15 1014.33 1014.58 1014.87 1015.19 1015.50 1015.80 1016.06 1016.29 1016.52 1016.75 1017.00 1017.28 1017.57 1017.86 1018.12 1018.33 1018.50 1018.62 1018.72 1018.82 1018.96
1010.26 1010.31 1010.42 1010.58 1010.78 1011.00 1011.21 1011.40 1011.59 1011.79 1012.01 1012.27 1012.56 1012.86 1013.16 1013.42 1013.64 1013.80 1013.92 1014.01 1014.11 1014.25 1014.45 1014.69 1014.99 1015.30 1015.61 1015.89 1016.14 1016.38 1016.61 1016.85 1017.13 1017.42 1017.73 1018.04 1018.31 1018.53 1018.69 1018.79 1018.87 1018.95 1019.05
1010.57 1010.64 1010.76 1010.91 1011.09 1011.26 1011.41 1011.57 1011.71 1011.88 1012.08 1012.33 1012.62 1012.93 1013.23 1013.51 1013.74 1013.91 1014.04 1014.14 1014.26 1014.40 1014.60 1014.84 1015.12 1015.42 1015.71 1015.97 1016.21 1016.44 1016.67 1016.92 1017.20 1017.51 1017.84 1018.16 1018.45 1018.68 1018.84 1018.94 1019.00 1019.06 1019.14
1010.84 1010.95 1011.10 1011.26 1011.42 1011.56 1011.68 1011.78 1011.89 1012.02 1012.19 1012.42 1012.70 1013.01 1013.32 1013.61 1013.85 1014.04 1014.18 1014.31 1014.44 1014.59 1014.78 1015.02 1015.28 1015.56 1015.82 1016.06 1016.28 1016.49 1016.70 1016.95 1017.23 1017.55 1017.89 1018.23 1018.54 1018.79 1018.96 1019.07 1019.13 1019.17 1019.24
1011.04 1011.21 1011.40 1011.59 1011.75 1011.88 1011.97 1012.04 1012.11 1012.20 1012.34 1012.55 1012.81 1013.10 1013.41 1013.71 1013.96 1014.17 1014.33 1014.48 1014.62 1014.79 1014.98 1015.21 1015.46 1015.71 1015.95 1016.17 1016.36 1016.55 1016.75 1016.98 1017.25 1017.56 1017.91 1018.26 1018.58 1018.85 1019.05 1019.18 1019.25 1019.30 1019.35
1011.12 1011.36 1011.61 1011.84 1012.03 1012.17 1012.25 1012.30 1012.34 1012.41 1012.52 1012.69 1012.92 1013.20 1013.50 1013.79 1014.05 1014.27 1014.46 1014.62 1014.79 1014.96 1015.17 1015.39 1015.63 1015.88 1016.10 1016.30 1016.48 1016.65 1016.82 1017.03 1017.27 1017.57 1017.90 1018.25 1018.58 1018.87 1019.10 1019.26 1019.36 1019.42 1019.47
1011.07 1011.37 1011.68 1011.96 1012.18 1012.35 1012.45 1012.50 1012.54 1012.59 1012.68 1012.82 1013.03 1013.28 1013.55 1013.83 1014.09 1014.33 1014.53 1014.72 1014.90 1015.10 1015.31 1015.55 1015.80 1016.05 1016.27 1016.47 1016.64 1016.79 1016.94 1017.11 1017.32 1017.58 1017.88 1018.21 1018.53 1018.84 1019.10 1019.30 1019.44 1019.53 1019.59
1010.88 1011.23 1011.58 1011.90 1012.17 1012.37 1012.50 1012.58 1012.64 1012.69 1012.78 1012.91 1013.09 1013.31 1013.56 1013.82 1014.07 1014.31 1014.53 1014.74 1014.94 1015.17 1015.41 1015.67 1015.94 1016.21 1016.45 1016.66 1016.83 1016.97 1017.10 1017.23 1017.40 1017.60 1017.85 1018.14 1018.45 1018.75 1019.03 1019.27 1019.45 1019.58 1019.67
1010.57 1010.93 1011.30 1011.65 1011.95 1012.20 1012.38 1012.52 1012.61 1012.70 1012.80 1012.92 1013.09 1013.28 1013.50 1013.74 1013.98 1014.22 1014.45 1014.68 1014.92 1015.17 1015.45 1015.74 1016.04 1016.34 1016.61 1016.84 1017.02 1017.16 1017.27 1017.37 1017.48 1017.62 1017.81 1018.04 1018.31 1018.60 1018.88 1019.14 1019.36 1019.54 1019.67
1010.21 1010.54 1010.89 1011.24 1011.57 1011.86 1012.11 1012.31 1012.47 1012.61 1012.74 1012.88 1013.03 1013.20 1013.40 1013.61 1013.84 1014.07 1014.31 1014.57 1014.83 1015.12 1015.43 1015.76 1016.10 1016.43 1016.73 1016.99 1017.19 1017.34 1017.43 1017.50 1017.56 1017.64 1017.75 1017.91 1018.12 1018.37 1018.65 1018.92 1019.17 1019.38 1019.55
1009.86 1010.14 1010.45 1010.78 1011.12 1011.45 1011.75 1012.03 1012.26 1012.46 1012.64 1012.79 1012.94 1013.10 1013.27 1013.46 1013.67 1013.90 1014.15 1014.42 1014.72 1015.04 1015.38 1015.74 1016.11 1016.47 1016.80 1017.09 1017.31 1017.46 1017.56 1017.60 1017.61 1017.63 1017.67 1017.76 1017.90 1018.10 1018.34 1018.60 1018.86 1019.10 1019.31
1009.61 1009.82 1010.06 1010.36 1010.69 1011.04 1011.40 1011.74 1012.05 1012.32 1012.54 1012.72 1012.87 1013.01 1013.15 1013.32 1013.51 1013.74 1014.00 1014.29 1014.61 1014.96 1015.33 1015.72 1016.10 1016.48 1016.83 1017.13 1017.37 1017.54 1017.63 1017.66 1017.64 1017.60 1017.58 1017.59 1017.66 1017.79 1017.98 1018.21 1018.47 1018.72 1018.94
1009.50 1009.63 1009.81 1010.06 1010.37 1010.74 1011.14 1011.54 1011.91 1012.24 1012.49 1012.69 1012.83 1012.96 1013.08 1013.22 1013.40 1013.62 1013.89 1014.21 1014.55 1014.92 1015.31 1015.70 1016.10 1016.48 1016.83 1017.14 1017.38 1017.56 1017.66 1017.68 1017.65 1017.58 1017.50 1017.44 1017.44 1017.49 1017.61 1017.80 1018.02 1018.25 1018.48
1009.52 1009.61 1009.74 1009.95 1010.24 1010.61 1011.04 1011.48 1011.89 1012.25 1012.53 1012.73 1012.86 1012.96 1013.05 1013.17 1013.34 1013.56 1013.85 1014.18 1014.55 1014.93 1015.33 1015.73 1016.11 1016.48 1016.82 1017.12 1017.37 1017.55 1017.66 1017.69 1017.65 1017.57 1017.45 1017.34 1017.27 1017.24 1017.29 1017.40 1017.56 1017.77 1017.98
1009.60 1009.69 1009.80 1010.00 1010.28 1010.65 1011.09 1011.55 1011.99 1012.36 1012.64 1012.83 1012.94 1013.01 1013.08 1013.18 1013.33 1013.56 1013.86 1014.21 1014.60 1015.00 1015.40 1015.78 1016.15 1016.49 1016.81 1017.09 1017.33 1017.52 1017.65 1017.69 1017.67 1017.58 1017.45 1017.30 1017.17 1017.07 1017.03 1017.06 1017.16 1017.30 1017.48
1009.66 1009.79 1009.93 1010.14 1010.43 1010.81 1011.25 1011.71 1012.15 1012.52 1012.79 1012.96 1013.05 1013.09 1013.13 1013.21 1013.35 1013.59 1013.90 1014.27 1014.68 1015.09 1015.49 1015.86 1016.20 1016.51 1016.80 1017.06 1017.29 1017.48 1017.62 1017.70 1017.70 1017.63 1017.50 1017.33 1017.15 1016.99 1016.87 1016.82 1016.83 1016.91 1017.03
1009.59 1009.81 1010.01 1010.25 1010.57 1010.96 1011.41 1011.88 1012.31 1012.67 1012.92 1013.06 1013.12 1013.13 1013.15 1013.21 1013.36 1013.60 1013.93 1014.32 1014.74 1015.16 1015.55 1015.91 1016.22 1016.50 1016.76 1016.99 1017.21 1017.41 1017.57 1017.68 1017.72 1017.68 1017.56 1017.39 1017.19 1016.98 1016.81 1016.67 1016.61 1016.61 1016.68
1009.31 1009.64 1009.94 1010.25 1010.60 1011.02 1011.47 1011.94 1012.37 1012.71 1012.95 1013.07 1013.11 1013.11 1013.11 1013.17 1013.31 1013.56 1013.89 1014.30 1014.73 1015.15 1015.54 1015.88 1016.17 1016.42 1016.64 1016.86 1017.07 1017.28 1017.46 1017.60 1017.68 1017.68 1017.60 1017.45 1017.25 1017.02 1016.80 1016.61 1016.49 1016.43 1016.44
1008.81 1009.26 1009.66 1010.04 1010.44 1010.89 1011.36 1011.83 1012.26 1012.60 1012.84 1012.96 1013.00 1013.00 1013.00 1013.05 1013.19 1013.44 1013.77 1014.18 1014.60 1015.02 1015.40 1015.72 1015.99 1016.21 1016.41 1016.61 1016.82 1017.03 1017.24 1017.42 1017.54 1017.59 1017.56 1017.45 1017.26 1017.04 1016.81 1016.60 1016.44 1016.35 1016.33
Thickness
5767 5770 5771 5771 5771 5770 5770 5771 5771 5771 5771 5771 5771 5771 5771 5770 5769 5769 5768 5767 5767 5766 5766 5765 5764 5763 5762 5761 5760 5759 5758 5757 5756 5755 5754 5752 5751 5750 5749 5748 5746 5746 5745
5770 5770 5770 5769 5769 5769 5769 5769 5770 5769 5769 5768 5769 5769 5769 5769 5768 5768 5767 5766 5765 5765 5764 5764 5763 5762 5761 5760 5759 5758 5757 5756 5754 5754 5753 5751 5749 5748 5747 5746 5745 5745 5744
5770 5769 5768 5768 5768 5768 5767 5767 5768 5768 5767 5767 5767 5767 5767 5767 5767 5766 5766 5765 5764 5763 5763 5762 5762 5761 5760 5759 5757 5757 5756 5754 5753 5753 5751 5750 5748 5747 5746 5745 5745 5744 5743
5769 5768 5767 5767 5767 5766 5766 5766 5766 5766 5766 5766 5766 5766 5766 5765 5765 5765 5764 5763 5762 5762 5761 5761 5760 5759 5758 5757 5756 5755 5754 5753 5752 5751 5749 5748 5748 5747 5746 5745 5744 5743 5742
5768 5767 5766 5766 5765 5765 5765 5765 5764 5764 5765 5765 5765 5764 5764 5764 5764 5763 5763 5762 5761 5760 5759 5759 5758 5757 5757 5756 5755 5754 5753 5752 5751 5749 5748 5747 5747 5746 5745 5745 5744 5742 5741
5767 5766 5766 5765 5764 5764 5764 5764 5763 5763 5764 5764 5764 5763 5763 5762 5762 5762 5761 5761 5760 5759 5758 5757 5757 5756 5755 5754 5753 5753 5752 5750 5749 5748 5747 5747 5746 5746 5745 5744 5743 5742 5741
5765 5765 5765 5765 5764 5763 5763 5763 5763 5763 5763 5763 5763 5762 5762 5761 5761 5761 5760 5759 5758 5757 5756 5756 5755 5754 5753 5753 5752 5751 5751 5749 5748 5747 5747 5746 5745 5745 5744 5743 5743 5741 5740
5766 5765 5764 5764 5763 5762 5762 5762 5762 5762 5762 5761 5761 5761 5760 5760 5760 5760 5759 5758 5757 5756 5755 5754 5753 5753 5752 5752 5751 5751 5750 5749 5748 5747 5746 5745 5745 5744 5744 5742 5741 5741 5740
5766 5764 5763 5763 5762 5762 5761 5761 5760 5760 5760 5760 5760 5760 5759 5759 5759 5758 5758 5757 5756 5755 5754 5753 5752 5752 5751 5751 5751 5750 5750 5749 5748 5747 5746 5745 5745 5744 5743 5742 5741 5740 5739
5765 5763 5762 5762 5761 5760 5760 5760 5760 5759 5759 5759 5759 5759 5758 5758 5758 5757 5756 5756 5755 5754 5753 5752 5751 5751 5750 5750 5750 5750 5750 5748 5747 5746 5746 5745 5745 5744 5743 5742 5741 5740 5739
5764 5763 5762 5761 5760 5760 5760 5759 5759 5758 5758 5757 5757 5757 5756 5755 5755 5755 5755 5754 5753 5752 5752 5751 5750 5749 5749 5749 5749 5749 5749 5748 5746 5746 5745 5745 5745 5744 5743 5742 5741 5740 5739
5762 5763 5762 5761 5760 5759 5759 5758 5758 5757 5756 5756 5755 5754 5754 5753 5753 5753 5753 5752 5752 5751 5750 5750 5749 5748 5748 5748 5748 5748 5747 5747 5746 5746 5745 5745 5745 5744 5744 5743 5741 5740 5739
5766 5765 5764 5763 5762 5760 5759 5758 5757 5756 5755 5755 5754 5753 5752 5752 5751 5751 5751 5751 5750 5750 5749 5748 5747 5747 5747 5747 5747 5747 5747 5747 5746 5746 5746 5745 5745 5745 5744 5743 5742 5740 5739
5768 5767 5766 5765 5763 5761 5759 5758 5757 5756 5755 5754 5754 5753 5752 5751 5751 5750 5750 5749 5749 5748 5748 5747 5746 5746 5746 5746 5746 5746 5747 5747 5747 5746 5746 5746 5746 5746 5745 5744 5743 5742 5740
5771 5770 5768 5767 5764 5763 5761 5759 5758 5757 5756 5755 5754 5753 5752 5751 5750 5750 5749 5749 5748 5747 5746 5746 5746 5746 5745 5746 5746 5747 5747 5747 5747 5747 5747 5747 5746 5746 5746 5745 5744 5743 5741
5775 5773 5772 5769 5767 5764 5762 5761 5759 5758 5757 5756 5755 5754 5753 5752 5751 5750 5749 5748 5748 5747 5746 5746 5745 5745 5745 5745 5746 5747 5747 5747 5747 5747 5747 5747 5747 5746 5746 5746 5745 5744 5742
5780 5778 5775 5772 5769 5766 5764 5762 5761 5759 5758 5757 5755 5755 5754 5753 5751 5750 5749 5748 5748 5747 5746 5745 5745 5744 5744 5745 5745 5746 5746 5747 5747 5747 5747 5747 5747 5747 5747 5746 5746 5744 5743
5784 5780 5778 5777 5773 5769 5766 5764 5762 5760 5759 5757 5756 5755 5754 5753 5752 5750 5749 5748 5748 5747 5746 5745 5744 5743 5743 5743 5743 5744 5745 5746 5747 5747 5747 5748 5748 5748 5748 5747 5746 5745 5743
5789 5784 5780 5779 5775 5772 5769 5766 5763 5761 5759 5758 5757 5756 5755 5754 5752 5751 5750 5749 5748 5746 5745 5745 5743 5742 5741 5741 5742 5743 5744 5746 5747 5747 5748 5748 5748 5748 5747 5747 5746 5745 5744
5793 5788 5784 5781 5778 5775 5771 5767 5764 5762 5761 5760 5759 5758 5756 5755 5753 5751 5750 5749 5747 5746 5745 5744 5742 5742 5741 5741 5742 5742 5743 5745 5746 5747 5748 5748 5748 5748 5747 5746 5745 5744 5743
5795 5790 5786 5782 5780 5777 5772 5767 5763 5761 5761 5761 5761 5760 5758 5756 5754 5752 5751 5749 5747 5746 5744 5743 5742 5740 5739 5740 5737 5737 5740 5744 5745 5746 5747 5747 5747 5747 5746 5746 5745 5744 5743
5797 5794 5790 5786 5783 5780 5777 5773 5769 5766 5765 5764 5763 5762 5760 5757 5755 5754 5752 5750 5748 5746 5744 5743 5741 5738 5738 5738 5735 5732 5731 5735 5740 5745 5745 5745 5745 5745 5745 5744 5744 5743 5742
5800 5798 5795 5791 5787 5784 5780 5775 5771 5768 5766 5764 5763 5762 5762 5760 5758 5756 5754 5751 5749 5746 5744 5743 5741 5739 5736 5736 5737 5733 5728 5726 5732 5739 5741 5743 5743 5743 5743 5743 5743 5742 5741
5806 5804 5799 5795 5791 5787 5783 5778 5773 5768 5765 5765 5765 5764 5763 5761 5759 5757 5755 5752 5749 5746 5745 5743 5741 5740 5737 5734 5734 5735 5734 5733 5729 5730 5736 5739 5741 5741 5742 5742 5742 5741 5740
5811 5807 5802 5798 5793 5789 5785 5782 5777 5773 5770 5768 5767 5765 5763 5762 5760 5758 5756 5753 5750 5747 5746 5743 5742 5740 5739 5736 5734 5733 5732 5731 5731 5727 5727 5732 5736 5739 5740 5740 5740 5740 5739
5812 5808 5803 5798 5794 5791 5787 5784 5780 5775 5771 5768 5766 5764 5762 5761 5760 5759 5757 5754 5751 5749 5747 5745 5742 5741 5739 5737 5736 5735 5733 5731 5729 5727 5726 5727 5729 5735 5737 5738 5738 5737 5736